SCP
0 0 0 0 0 0 0 0 0 -0 0 0 0 0 0 0 0 0 0 0 0 0 0 0 0 0 0 0 0 0 0 0 0 0 0 0 0 0 0 0 0 0 0 0
0 0 0 0 0 0 0 0 0 0 0 0 0 0 0 0 0 0 0 0 0 0 0 0 0 0 0 0 0 0 0 0 0 0 0 0 0 0 0 0 0 0 0 0
0 0 0 0 0 0 0 0 0 0 0 0 0 0 0 0 0 0 0 0 0 0 0 0 0 0 0 0 0 0 0 0 0 0 0 0 0 0 0 0 0 0 0 0
0 0 0 0 0 0 0 0 0 0 0 0 0 0 0 0 0 0 0 0 0 0 0 0 0 0 0 0 0 0 0 0 0 0 0 0 0 0 0 0 0 0 0 0
0 0 0 0 0 0 0 0 0 0 0 0 0 0 0 0 0 0 0 0 0 0 0 0 0 0 0 0 0 0 0 0 0 0 0 0 0 0 0 -0 -0 0 0 0
0 0 0 0 0 0 0 0 0 0 0 0 0 0 0 0 -0 0 0 0 0 0 0 0 0 0 0 0 0 0 0 0 0 0 0 0 0 0 0 0 -0 -0 0 0
0 0 0 0 0 0 0 0 0 0 0 0 0 0 0 0 0 0 0 0 0 0 0 0 0 0 0 0 0 0 0 0 0 0 0 0 0 0 0 0 0 -0 -0 0
0 0 0 0 0 0 0 0 0 0 0 0 0 0 0 0 0 0 0 0 0 0 0 0 0 0 0 0 0 0 0 0 0 0 0 0 0 0 0 0 0 0 0 0
0 0 0 0 0 0 0 0 0 0 0 0 0 0 0 0 0 -0 -0 0 0 0 0 0 0 0 0 0 0 0 0 0 0 0 0 0 0 0 0 0 0 0 0 -0
0 0 0 0 0 0 0 0 0 0 0 0 0 0 -0 -0 -0 0 0 0 0 -0 -0 -0 0 0 0 0 0 0 0 0 0 0 0 0 0 0 0 0 0 0 0 0
0 0 0 0 0 0 0 0 0 0 0 0 -0 -0 0 0 0 0 -0 -0 -0 -0 -0 -0 0 0 0 0 0 0 0 0 0 0 0 0 0 0 0 0 0 0 0 0
0 0 0 0 0 0 0 0 0 0 -0 -0 0 0 0 0 0 -0 -0 -0 -0 -0 -0 -0 0 0 0 0 0 0 0 0 0 0 0 0 0 0 0 0 0 0 0 0
0 0 0 -0 0 0 0 0 -0 -0 0 0 0 0 0 -0 -0 -0 -0 -0 -0 -0 -0 0 0 -0 0 0 0 0 0 0 0 0 0 0 0 0 -0 0 0 -0 -0 -0
0 -0 0 0 0 0 0 0 0 0 0 0 0 -0 -0 -0 -0 -0 -0 -0 0 0 -0 -0 -0 0 0 0 0 0 0 0 0 0 0 0 0 0 0 0 0 -0 0 0
0 0 0 0 0 0 -0 0 -0 -0 -0 -0 0 0 0 -0 -0 0 -0 0 -0 -0 -0 -0 0 0 0 0 0 0 0 0 0 0 0 0 0 0 0 0 0 0 0 0
0 0 0 0 0 0 0 -0 -0 -0 -0 -0 -0 0 0 0 -0 -0 -0 -0 -0 -0 -0 -0 0 0 0 0 0 0 0 0 0 0 0 0 0 0 0 0 0 0 0 0
0 -0 0 0 0 0 -0 -0 0 -0 0 -0 0 0 -0 -0 0 0 0 0 0 -0 0 -0 -0 -0 0 0 0 0 0 0 0 0 0 0 0 0 0 0 0 0 0 0
0 0 0 0 -0 -0 0 -0 0 0 0 0 -0 0 0 0 -0 0 0 -0 -0 -0 0 -0 -0 -0 0 0 0 0 0 0 0 0 0 0 0 0 0 0 0 0 -0 -0
0 0 0 -0 0 0 0 0 0 0 0 -0 -0 0 0 0 -0 -0 -0 -0 0 0 0 0 -0 -0 0 0 0 0 0 0 0 0 0 0 0 0 0 0 0 0 0 0
0 -0 -0 0 0 0 0 -0 -0 0 -0 -0 -0 -0 -0 -0 -0 -0 -0 -0 0 0 -0 -0 0 0 0 0 0 0 0 0 0 0 0 0 0 0 0 0 0 0 0 0
0 -0 -0 0 0 0 -0 -0 0 0 -0 -0 -0 -0 -0 -0 -0 -0 -0 -0 -0 -0 -0 -0 0 0 0 0 0 0 0 0 0 0 0 0 0 0 0 0 0 0 0 0
-0 -0 -0 -0 -0 -0 -0 -0 0 -0 0 -0 -0 -0 -0 -0 -0 -0 -0 -0 -0 -0 0 0 0 0 0 0 0 0 0 0 0 0 0 0 0 0 0 0 0 0 0 0
-0 -0 -0 -0 -0 -0 -0 -0 -0 -0 0 0 -0 -0 -0 -0 -0 -0 -0 -0 -0 -0 0 0 -0 0 0 0 0 0 0 0 0 0 0 0 0 0 0 0 0 0 0 0
0 -0 -0 -0 -0 -0 -0 -0 -0 -0 -0 0 0 0 -0 -0 -0 0 0 -0 -0 -0 -0 -0 -0 0 0 0 0 0 0 0 0 0 0 0 0 0 0 0 0 0 0 0
0 0 -0 -0 -0 -0 -0 -0 -0 -0 -0 -0 -0 0 0 0 -0 0 0 -0 -0 -0 -0 -0 -0 -0 0 0 0 0 0 0 0 0 0 0 0 0 0 0 0 0 0 0
-0 -0 -0 -0 -0 -0 -0 -0 -0 -0 -0 -0 -0 -0 0 0 0 -0 0 -0 -0 -0 -0 -0 -0 -0 0 0 0 0 0 0 0 0 0 0 0 0 0 0 0 0 0 0
-0 0 0 -0 -0 -0 -0 -0 -0 -0 -0 -0 -0 0 0 0 0 -0 -0 -0 -0 -0 -0 -0 -0 -0 -0 0 0 0 0 0 0 0 0 0 0 0 0 0 0 0 0 0
Wind_Speed_500mb
16 25 34 36 35 29 25 27 18 18 21 29 13 23 32 35 31 32 28 21 13 18 28 40 39 46 46 43 45 48 50 48 40 40 45 54 62 63 65 68 70 68 73 76
16 27 35 41 35 33 36 29 38 35 39 25 16 16 8 8 6 18 11 20 38 42 38 23 20 16 19 28 38 44 41 46 54 56 59 61 67 70 69 71 74 68 72 71
7 18 24 16 27 30 28 16 15 22 9 16 10 14 12 15 15 16 24 11 14 14 29 34 38 40 45 50 51 50 53 58 63 62 57 56 59 58 65 68 72 74 68 70
7 12 10 10 12 15 4 26 23 17 19 15 19 28 17 16 37 34 33 32 32 33 35 40 44 48 51 50 56 63 70 75 78 78 79 80 76 89 87 75 70 70 76 69
4 5 19 22 7 7 7 10 13 16 11 14 21 36 7 34 34 35 40 43 43 46 50 55 61 64 64 69 74 75 73 72 69 70 69 74 79 87 99 95 91 72 57 64
3 8 5 1 9 29 10 3 14 15 12 10 18 2 9 47 42 40 38 40 45 47 53 59 66 67 64 65 68 64 63 65 65 65 67 69 77 91 93 95 95 90 80 52
11 8 13 15 9 25 7 6 6 15 11 19 5 9 36 43 46 48 52 53 50 55 68 71 57 38 50 60 63 67 64 60 62 62 71 78 84 90 87 89 90 87 85 81
8 10 9 23 10 7 11 7 17 12 19 21 26 31 37 45 53 54 53 62 70 61 48 35 49 59 67 77 82 87 88 90 91 86 82 83 90 84 78 81 84 80 60 82
7 5 13 13 7 18 27 33 36 33 35 36 37 39 45 51 53 63 67 52 30 55 71 78 87 89 90 100 96 89 77 74 73 77 79 75 65 70 78 74 75 73 67 69
6 4 14 13 25 22 26 31 33 37 37 32 40 47 51 55 52 42 45 58 69 82 95 104 105 98 85 79 78 75 74 72 74 67 69 58 61 64 65 69 67 69 67 63
9 14 14 27 26 21 29 27 26 23 33 40 44 46 38 44 41 52 67 81 95 105 90 78 88 80 79 72 70 72 71 69 68 66 64 65 64 63 68 73 72 69 69 67
2 8 2 10 19 24 24 30 34 38 42 37 35 41 40 49 59 74 93 101 82 69 74 83 79 75 71 66 64 67 70 65 61 59 63 69 68 66 63 68 69 72 70 68
6 12 14 23 23 28 34 39 37 39 35 40 39 45 54 66 83 90 82 65 64 72 75 74 72 68 65 59 58 60 66 70 73 71 69 56 58 61 69 67 62 63 71 74
11 20 20 24 28 35 39 38 36 31 38 42 47 57 74 83 84 63 63 68 62 65 67 62 62 62 56 53 54 57 61 65 67 68 72 77 77 76 72 71 76 78 75 78
29 26 24 28 32 30 33 34 41 45 43 48 62 69 77 64 60 62 59 57 60 58 57 56 57 58 54 54 53 53 53 55 54 56 57 58 57 64 71 69 68 69 66 67
23 26 29 25 28 35 31 43 42 41 48 62 64 74 60 56 57 56 56 53 53 58 55 56 56 54 52 48 48 49 46 41 38 41 43 44 45 49 53 55 57 59 62 65
23 27 30 32 31 33 44 41 36 38 56 66 66 63 57 56 56 56 52 46 44 48 47 51 53 48 45 40 45 48 41 35 32 34 38 40 41 42 43 45 46 46 46 43
22 27 31 30 36 45 39 30 41 49 64 71 55 55 52 51 53 54 50 46 48 46 45 44 44 44 35 31 37 38 37 35 33 37 36 35 34 34 36 32 34 38 34 24
25 28 30 32 37 36 33 39 51 57 56 84 57 55 51 49 49 46 45 47 52 57 53 46 42 37 35 27 29 31 33 34 33 29 28 26 21 19 21 25 27 21 19 13
26 26 28 33 33 34 37 41 47 63 66 79 65 56 56 53 50 47 49 49 49 48 45 40 45 46 38 31 28 32 34 34 32 32 34 29 26 28 30 31 31 34 20 10
25 26 27 34 30 43 40 53 47 55 69 77 71 63 59 61 56 52 57 56 51 46 40 42 45 42 41 41 44 42 40 42 43 42 43 38 32 26 30 34 33 35 35 27
25 27 27 32 37 45 39 46 64 54 66 70 90 70 65 66 67 59 51 50 48 45 43 46 40 37 43 47 48 49 52 54 54 51 50 47 40 34 31 31 33 31 27 26
25 26 27 32 39 43 42 43 63 62 65 64 93 79 70 67 72 70 66 55 50 45 47 45 38 43 49 49 49 52 55 58 59 58 56 51 45 39 33 29 27 28 30 27
23 27 29 30 35 38 49 44 52 67 60 59 76 89 75 75 75 71 59 57 54 52 54 50 53 56 55 53 53 56 57 58 58 56 54 53 51 47 41 37 29 24 23 20
17 22 31 36 37 37 39 53 50 71 65 57 63 87 83 73 76 78 75 70 67 71 67 64 65 63 61 60 59 59 60 58 57 57 58 58 58 55 50 46 41 34 26 21
22 23 26 34 36 37 40 51 55 62 70 63 55 67 87 80 78 79 84 84 82 82 76 77 76 75 71 68 68 66 65 64 63 61 59 56 57 58 56 52 49 49 46 39
22 23 17 26 32 36 35 43 54 53 65 72 58 55 71 82 77 78 80 83 87 89 87 83 79 77 76 76 76 75 72 70 70 69 65 61 59 60 58 55 54 55 55 54
Wind_Direction_500mb
286 295 289 282 280 267 208 218 225 248 258 282 285 202 202 232 251 259 262 244 262 288 292 291 286 277 273 260 266 268 277 283 285 292 290 285 284 287 285 289 293 298 303 289
294 280 276 275 265 260 257 242 236 242 249 242 238 47 98 170 216 237 293 278 279 285 289 308 287 320 293 279 276 278 274 273 279 285 287 290 293 292 289 289 289 293 292 299
265 317 344 302 250 251 259 247 253 256 289 16 77 74 20 349 340 306 296 16 18 326 318 321 318 314 307 302 289 272 268 275 277 278 279 279 284 285 284 288 287 284 288 291
275 286 251 270 349 34 91 44 11 51 52 47 24 20 353 17 31 18 2 350 338 326 314 307 302 299 298 297 295 291 287 283 281 279 281 277 279 282 278 277 285 287 286 284
252 259 293 306 357 45 39 59 29 65 71 62 23 354 250 26 1 345 335 328 323 318 312 308 306 303 301 295 289 286 285 277 272 273 271 274 274 282 282 284 281 284 289 285
224 274 278 122 348 343 28 142 18 12 354 19 23 341 288 334 338 332 325 319 313 307 307 307 305 302 300 291 285 285 283 281 275 269 268 271 275 278 275 287 284 282 274 285
220 234 280 360 44 325 227 203 307 298 5 11 5 310 328 329 328 325 321 315 309 310 310 307 303 293 295 290 284 283 281 277 275 273 269 273 275 277 274 275 284 278 270 265
197 212 222 1 34 28 309 269 299 329 7 356 339 333 331 327 324 319 318 317 316 309 299 290 300 303 297 293 294 293 292 288 284 282 280 278 276 270 266 274 278 271 270 261
196 288 217 297 296 350 8 8 358 0 0 352 341 334 329 324 318 315 315 317 309 309 307 305 302 305 304 301 300 298 295 291 287 284 284 272 266 269 271 269 265 269 268 263
224 315 295 89 45 19 4 346 347 346 344 349 346 334 324 316 318 327 316 311 308 308 307 306 304 304 301 298 296 295 292 290 292 287 284 276 271 273 263 262 259 263 261 260
271 37 61 26 5 348 324 328 348 349 352 342 330 321 331 330 321 314 312 310 309 310 309 304 308 305 302 298 296 294 291 289 288 284 282 281 273 265 268 266 259 259 259 261
221 81 137 306 326 336 11 21 5 355 343 341 342 336 325 319 315 315 314 313 314 309 303 304 304 304 303 301 296 287 288 288 287 285 274 272 276 280 273 267 264 262 262 258
56 0 333 325 0 14 10 355 353 343 341 343 338 326 322 321 318 316 316 314 309 305 306 311 313 313 315 312 303 293 284 280 278 278 276 276 270 271 278 280 275 265 258 254
19 9 360 12 29 9 2 353 345 346 342 344 323 320 321 320 320 321 314 315 317 316 317 322 320 317 322 318 309 301 296 292 289 287 284 282 278 279 279 274 274 270 262 259
14 8 28 10 2 359 355 350 350 350 342 328 328 328 329 327 321 320 326 326 323 324 327 327 325 328 330 326 319 313 309 305 303 298 293 289 284 280 280 278 274 273 272 269
6 5 8 1 11 0 9 356 355 346 335 337 336 335 332 329 329 332 335 335 333 332 336 333 331 335 337 340 337 334 330 327 323 315 310 305 299 291 287 283 278 273 269 267
20 12 30 14 14 17 2 358 344 350 349 342 338 338 341 339 339 339 340 342 340 342 340 341 341 344 350 351 347 346 343 342 336 327 327 326 322 314 308 300 294 288 282 275
33 34 25 33 23 12 8 3 2 5 1 355 346 348 345 345 344 345 347 350 352 356 359 355 354 355 356 357 357 359 354 349 345 346 350 351 346 348 353 334 315 305 300 277
41 34 32 35 19 21 24 8 7 8 358 0 1 359 358 356 354 354 360 6 3 1 6 6 10 13 15 14 0 8 5 7 3 357 351 350 358 6 1 5 8 347 321 264
46 41 46 30 32 31 19 9 356 9 6 9 9 9 8 7 8 8 13 15 12 6 6 11 24 26 26 19 9 17 22 23 24 22 24 25 27 29 26 26 32 33 56 105
53 47 39 39 43 24 20 17 9 359 7 15 17 16 16 15 21 19 17 18 19 21 21 31 34 37 39 42 41 41 37 36 35 30 31 34 42 49 42 38 46 53 55 59
53 47 47 46 32 26 21 19 18 15 6 14 20 25 27 20 24 31 28 23 25 29 35 41 44 48 54 53 50 48 45 46 46 40 40 43 44 53 52 52 54 57 61 66
60 50 47 43 29 32 31 16 17 25 16 14 19 25 34 29 27 26 27 34 38 40 48 50 53 58 57 54 52 51 49 46 45 45 45 47 48 56 53 61 65 69 67 77
62 52 47 39 33 34 32 25 16 27 25 19 18 27 33 36 35 40 41 48 51 52 52 55 58 56 54 51 51 52 51 51 49 47 49 52 53 54 56 59 65 68 77 86
62 57 46 42 38 35 27 29 22 24 28 28 19 25 31 43 47 44 45 50 55 56 54 55 57 57 55 53 52 53 50 49 48 49 48 49 53 54 57 60 59 62 69 81
74 68 55 41 44 38 30 24 28 25 27 32 29 22 30 36 45 51 53 52 52 55 54 54 54 56 54 54 53 51 52 50 50 49 49 50 51 55 56 57 61 63 59 62
74 50 74 53 47 42 34 30 31 27 27 33 37 28 25 34 41 46 51 53 53 53 52 53 54 56 57 57 56 55 53 52 51 50 51 51 52 55 56 56 58 60 63 66
Wind_Speed_850mb
16 25 34 36 35 29 25 27 18 18 21 29 13 23 32 35 31 32 28 21 13 18 28 40 39 46 46 43 45 48 50 48 40 40 45 54 62 63 65 68 70 68 73 76
16 27 35 41 35 33 36 29 38 35 39 25 16 16 8 8 6 18 11 20 38 42 38 23 20 16 19 28 38 44 41 46 54 56 59 61 67 70 69 71 74 68 72 71
7 18 24 16 27 30 28 16 15 22 9 16 10 14 12 15 15 16 24 11 14 14 29 34 38 40 45 50 51 50 53 58 63 62 57 56 59 58 65 68 72 74 68 70
7 12 10 10 12 15 4 26 23 17 19 15 19 28 17 16 37 34 33 32 32 33 35 40 44 48 51 50 56 63 70 75 78 78 79 80 76 89 87 75 70 70 76 69
4 5 19 22 7 7 7 10 13 16 11 14 21 36 7 34 34 35 40 43 43 46 50 55 61 64 64 69 74 75 73 72 69 70 69 74 79 87 99 95 91 72 57 64
3 8 5 1 9 29 10 3 14 15 12 10 18 2 9 47 42 40 38 40 45 47 53 59 66 67 64 65 68 64 63 65 65 65 67 69 77 91 93 95 95 90 80 52
11 8 13 15 9 25 7 6 6 15 11 19 5 9 36 43 46 48 52 53 50 55 68 71 57 38 50 60 63 67 64 60 62 62 71 78 84 90 87 89 90 87 85 81
8 10 9 23 10 7 11 7 17 12 19 21 26 31 37 45 53 54 53 62 70 61 48 35 49 59 67 77 82 87 88 90 91 86 82 83 90 84 78 81 84 80 60 82
7 5 13 13 7 18 27 33 36 33 35 36 37 39 45 51 53 63 67 52 30 55 71 78 87 89 90 100 96 89 77 74 73 77 79 75 65 70 78 74 75 73 67 69
6 4 14 13 25 22 26 31 33 37 37 32 40 47 51 55 52 42 45 58 69 82 95 104 105 98 85 79 78 75 74 72 74 67 69 58 61 64 65 69 67 69 67 63
9 14 14 27 26 21 29 27 26 23 33 40 44 46 38 44 41 52 67 81 95 105 90 78 88 80 79 72 70 72 71 69 68 66 64 65 64 63 68 73 72 69 69 67
2 8 2 10 19 24 24 30 34 38 42 37 35 41 40 49 59 74 93 101 82 69 74 83 79 75 71 66 64 67 70 65 61 59 63 69 68 66 63 68 69 72 70 68
6 12 14 23 23 28 34 39 37 39 35 40 39 45 54 66 83 90 82 65 64 72 75 74 72 68 65 59 58 60 66 70 73 71 69 56 58 61 69 67 62 63 71 74
11 20 20 24 28 35 39 38 36 31 38 42 47 57 74 83 84 63 63 68 62 65 67 62 62 62 56 53 54 57 61 65 67 68 72 77 77 76 72 71 76 78 75 78
29 26 24 28 32 30 33 34 41 45 43 48 62 69 77 64 60 62 59 57 60 58 57 56 57 58 54 54 53 53 53 55 54 56 57 58 57 64 71 69 68 69 66 67
23 26 29 25 28 35 31 43 42 41 48 62 64 74 60 56 57 56 56 53 53 58 55 56 56 54 52 48 48 49 46 41 38 41 43 44 45 49 53 55 57 59 62 65
23 27 30 32 31 33 44 41 36 38 56 66 66 63 57 56 56 56 52 46 44 48 47 51 53 48 45 40 45 48 41 35 32 34 38 40 41 42 43 45 46 46 46 43
22 27 31 30 36 45 39 30 41 49 64 71 55 55 52 51 53 54 50 46 48 46 45 44 44 44 35 31 37 38 37 35 33 37 36 35 34 34 36 32 34 38 34 24
25 28 30 32 37 36 33 39 51 57 56 84 57 55 51 49 49 46 45 47 52 57 53 46 42 37 35 27 29 31 33 34 33 29 28 26 21 19 21 25 27 21 19 13
26 26 28 33 33 34 37 41 47 63 66 79 65 56 56 53 50 47 49 49 49 48 45 40 45 46 38 31 28 32 34 34 32 32 34 29 26 28 30 31 31 34 20 10
25 26 27 34 30 43 40 53 47 55 69 77 71 63 59 61 56 52 57 56 51 46 40 42 45 42 41 41 44 42 40 42 43 42 43 38 32 26 30 34 33 35 35 27
25 27 27 32 37 45 39 46 64 54 66 70 90 70 65 66 67 59 51 50 48 45 43 46 40 37 43 47 48 49 52 54 54 51 50 47 40 34 31 31 33 31 27 26
25 26 27 32 39 43 42 43 63 62 65 64 93 79 70 67 72 70 66 55 50 45 47 45 38 43 49 49 49 52 55 58 59 58 56 51 45 39 33 29 27 28 30 27
23 27 29 30 35 38 49 44 52 67 60 59 76 89 75 75 75 71 59 57 54 52 54 50 53 56 55 53 53 56 57 58 58 56 54 53 51 47 41 37 29 24 23 20
17 22 31 36 37 37 39 53 50 71 65 57 63 87 83 73 76 78 75 70 67 71 67 64 65 63 61 60 59 59 60 58 57 57 58 58 58 55 50 46 41 34 26 21
22 23 26 34 36 37 40 51 55 62 70 63 55 67 87 80 78 79 84 84 82 82 76 77 76 75 71 68 68 66 65 64 63 61 59 56 57 58 56 52 49 49 46 39
22 23 17 26 32 36 35 43 54 53 65 72 58 55 71 82 77 78 80 83 87 89 87 83 79 77 76 76 76 75 72 70 70 69 65 61 59 60 58 55 54 55 55 54
Wind_Direction_850mb
286 295 289 282 280 267 208 218 225 248 258 282 285 202 202 232 251 259 262 244 262 288 292 291 286 277 273 260 266 268 277 283 285 292 290 285 284 287 285 289 293 298 303 289
294 280 276 275 265 260 257 242 236 242 249 242 238 47 98 170 216 237 293 278 279 285 289 308 287 320 293 279 276 278 274 273 279 285 287 290 293 292 289 289 289 293 292 299
265 317 344 302 250 251 259 247 253 256 289 16 77 74 20 349 340 306 296 16 18 326 318 321 318 314 307 302 289 272 268 275 277 278 279 279 284 285 284 288 287 284 288 291
275 286 251 270 349 34 91 44 11 51 52 47 24 20 353 17 31 18 2 350 338 326 314 307 302 299 298 297 295 291 287 283 281 279 281 277 279 282 278 277 285 287 286 284
252 259 293 306 357 45 39 59 29 65 71 62 23 354 250 26 1 345 335 328 323 318 312 308 306 303 301 295 289 286 285 277 272 273 271 274 274 282 282 284 281 284 289 285
224 274 278 122 348 343 28 142 18 12 354 19 23 341 288 334 338 332 325 319 313 307 307 307 305 302 300 291 285 285 283 281 275 269 268 271 275 278 275 287 284 282 274 285
220 234 280 360 44 325 227 203 307 298 5 11 5 310 328 329 328 325 321 315 309 310 310 307 303 293 295 290 284 283 281 277 275 273 269 273 275 277 274 275 284 278 270 265
197 212 222 1 34 28 309 269 299 329 7 356 339 333 331 327 324 319 318 317 316 309 299 290 300 303 297 293 294 293 292 288 284 282 280 278 276 270 266 274 278 271 270 261
196 288 217 297 296 350 8 8 358 0 0 352 341 334 329 324 318 315 315 317 309 309 307 305 302 305 304 301 300 298 295 291 287 284 284 272 266 269 271 269 265 269 268 263
224 315 295 89 45 19 4 346 347 346 344 349 346 334 324 316 318 327 316 311 308 308 307 306 304 304 301 298 296 295 292 290 292 287 284 276 271 273 263 262 259 263 261 260
271 37 61 26 5 348 324 328 348 349 352 342 330 321 331 330 321 314 312 310 309 310 309 304 308 305 302 298 296 294 291 289 288 284 282 281 273 265 268 266 259 259 259 261
221 81 137 306 326 336 11 21 5 355 343 341 342 336 325 319 315 315 314 313 314 309 303 304 304 304 303 301 296 287 288 288 287 285 274 272 276 280 273 267 264 262 262 258
56 0 333 325 0 14 10 355 353 343 341 343 338 326 322 321 318 316 316 314 309 305 306 311 313 313 315 312 303 293 284 280 278 278 276 276 270 271 278 280 275 265 258 254
19 9 360 12 29 9 2 353 345 346 342 344 323 320 321 320 320 321 314 315 317 316 317 322 320 317 322 318 309 301 296 292 289 287 284 282 278 279 279 274 274 270 262 259
14 8 28 10 2 359 355 350 350 350 342 328 328 328 329 327 321 320 326 326 323 324 327 327 325 328 330 326 319 313 309 305 303 298 293 289 284 280 280 278 274 273 272 269
6 5 8 1 11 0 9 356 355 346 335 337 336 335 332 329 329 332 335 335 333 332 336 333 331 335 337 340 337 334 330 327 323 315 310 305 299 291 287 283 278 273 269 267
20 12 30 14 14 17 2 358 344 350 349 342 338 338 341 339 339 339 340 342 340 342 340 341 341 344 350 351 347 346 343 342 336 327 327 326 322 314 308 300 294 288 282 275
33 34 25 33 23 12 8 3 2 5 1 355 346 348 345 345 344 345 347 350 352 356 359 355 354 355 356 357 357 359 354 349 345 346 350 351 346 348 353 334 315 305 300 277
41 34 32 35 19 21 24 8 7 8 358 0 1 359 358 356 354 354 360 6 3 1 6 6 10 13 15 14 0 8 5 7 3 357 351 350 358 6 1 5 8 347 321 264
46 41 46 30 32 31 19 9 356 9 6 9 9 9 8 7 8 8 13 15 12 6 6 11 24 26 26 19 9 17 22 23 24 22 24 25 27 29 26 26 32 33 56 105
53 47 39 39 43 24 20 17 9 359 7 15 17 16 16 15 21 19 17 18 19 21 21 31 34 37 39 42 41 41 37 36 35 30 31 34 42 49 42 38 46 53 55 59
53 47 47 46 32 26 21 19 18 15 6 14 20 25 27 20 24 31 28 23 25 29 35 41 44 48 54 53 50 48 45 46 46 40 40 43 44 53 52 52 54 57 61 66
60 50 47 43 29 32 31 16 17 25 16 14 19 25 34 29 27 26 27 34 38 40 48 50 53 58 57 54 52 51 49 46 45 45 45 47 48 56 53 61 65 69 67 77
62 52 47 39 33 34 32 25 16 27 25 19 18 27 33 36 35 40 41 48 51 52 52 55 58 56 54 51 51 52 51 51 49 47 49 52 53 54 56 59 65 68 77 86
62 57 46 42 38 35 27 29 22 24 28 28 19 25 31 43 47 44 45 50 55 56 54 55 57 57 55 53 52 53 50 49 48 49 48 49 53 54 57 60 59 62 69 81
74 68 55 41 44 38 30 24 28 25 27 32 29 22 30 36 45 51 53 52 52 55 54 54 54 56 54 54 53 51 52 50 50 49 49 50 51 55 56 57 61 63 59 62
74 50 74 53 47 42 34 30 31 27 27 33 37 28 25 34 41 46 51 53 53 53 52 53 54 56 57 57 56 55 53 52 51 50 51 51 52 55 56 56 58 60 63 66